TimeMST,TemperatureF,Dew PointF,Humidity,Sea Level PressureIn,VisibilityMPH,Wind Direction,Wind SpeedMPH,Gust SpeedMPH,PrecipitationIn,Events,Conditions,WindDirDegrees,DateUTC
12:53 AM,24.1,18.0,77,29.92,10.0,Calm,Calm,-,N/A,,Clear,0,2012-11-08 07:53:00
1:53 AM,23.0,17.1,78,29.89,10.0,NE,4.6,-,N/A,,Clear,50,2012-11-08 08:53:00
2:53 AM,23.0,18.0,81,29.86,10.0,ENE,8.1,-,N/A,,Clear,60,2012-11-08 09:53:00
3:53 AM,23.0,18.0,81,29.86,10.0,North,4.6,-,N/A,,Clear,350,2012-11-08 10:53:00
4:53 AM,24.1,18.0,77,29.88,10.0,ENE,4.6,-,N/A,,Clear,70,2012-11-08 11:53:00
5:53 AM,19.9,16.0,85,29.93,10.0,Calm,Calm,-,N/A,,Clear,0,2012-11-08 12:53:00
6:53 AM,19.9,16.0,85,29.95,10.0,Calm,Calm,-,N/A,,Clear,0,2012-11-08 13:53:00
7:53 AM,26.1,21.0,81,29.93,10.0,Calm,Calm,-,N/A,,Clear,0,2012-11-08 14:53:00
8:53 AM,34.0,23.0,64,29.86,10.0,Calm,Calm,-,N/A,,Clear,0,2012-11-08 15:53:00
9:53 AM,39.0,24.1,55,29.80,10.0,Variable,3.5,-,N/A,,Clear,0,2012-11-08 16:53:00
10:53 AM,46.0,24.1,42,29.77,10.0,SSE,6.9,-,N/A,,Clear,150,2012-11-08 17:53:00
11:53 AM,54.0,24.1,31,29.67,10.0,South,19.6,25.3,N/A,,Clear,190,2012-11-08 18:53:00
12:53 PM,55.9,21.9,27,29.65,10.0,SSW,19.6,-,N/A,,Clear,210,2012-11-08 19:53:00
1:53 PM,55.9,21.0,26,29.62,10.0,SSW,13.8,24.2,N/A,,Scattered Clouds,210,2012-11-08 20:53:00
2:53 PM,57.0,19.0,23,29.63,10.0,WSW,19.6,28.8,N/A,,Mostly Cloudy,240,2012-11-08 21:53:00
3:53 PM,55.0,19.9,25,29.64,10.0,WSW,17.3,23.0,N/A,,Partly Cloudy,250,2012-11-08 22:53:00
4:53 PM,46.9,19.9,34,29.66,10.0,SW,6.9,-,N/A,,Clear,230,2012-11-08 23:53:00
5:53 PM,41.0,19.0,41,29.70,10.0,SSW,3.5,-,N/A,,Clear,200,2012-11-09 00:53:00
6:53 PM,41.0,19.0,41,29.68,10.0,South,3.5,-,N/A,,Clear,180,2012-11-09 01:53:00
7:53 PM,37.0,18.0,46,29.65,10.0,West,3.5,-,N/A,,Partly Cloudy,260,2012-11-09 02:53:00
8:53 PM,35.1,18.0,50,29.62,10.0,Calm,Calm,-,N/A,,Clear,0,2012-11-09 03:53:00
9:53 PM,33.1,18.0,54,29.61,10.0,SSW,5.8,-,N/A,,Clear,200,2012-11-09 04:53:00
10:53 PM,33.1,18.0,54,29.55,10.0,South,8.1,-,N/A,,Clear,180,2012-11-09 05:53:00
11:53 PM,33.1,18.0,54,29.52,10.0,SSE,3.5,-,N/A,,Clear,160,2012-11-09 06:53:00